Weather History for GMMZ - September, 2012

Change the Weather History Date:

Monday, September 3, 2012

  Actual Average Record
Temperature  
Mean Temperature 84 °F -  
Max Temperature 100 °F 89 °F - ()
Min Temperature 69 °F 62 °F - ()
Cooling Degree Days 20    
Growing Degree Days 34 (Base 50)    
Moisture  
Dew Point 28 °F    
Average Humidity 11    
Maximum Humidity 21    
Minimum Humidity 4    
Precipitation  
Precipitation 0.00 in 0.02 in - ()
Sea Level Pressure  
Sea Level Pressure 30.05 in    
Wind  
Wind Speed 4 mph ()    
Max Wind Speed 17 mph    
Max Gust Speed 29 mph    
Visibility 8.4 miles    
Events      
T = Trace of Precipitation, MM = Missing Value Source: Averaged Metar Reports

Daily Weather History Graph

Daily Weather History Graph

Search for Another Location

Airport or City:

Trip Planner

Search our weather history database for the weather conditions in past years. The results will help you decide how hot, cold, wet, or windy it might be!

Date:

Astronomy

Sep. 03, 2012 Rise Set
Actual Time 7:05 AM WEST 7:48 PM WEST
Civil Twilight 6:40 AM WEST 8:12 PM WEST
Nautical Twilight 6:11 AM WEST 8:41 PM WEST
Astronomical Twilight 5:42 AM WEST 9:10 PM WEST
Moon 9:17 PM WEST (9/3) 9:43 AM WEST (9/3)
Length of Visible Light 13h 31m
Length of Day
12h 42m
Waning Gibbous, 91% of the Moon is Illuminated
Sep 3
Waning Gibbous
Sep 8
Last Quarter
Sep 16
New
Sep 22
First Quarter
Sep 30
Full

Hourly Weather History & Observations

Time (WEST) Temp. Dew Point Humidity Pressure Visibility Wind Dir Wind Speed Gust Speed Precip Events Conditions
12:00 AM 86.0 °F 30.2 °F 13% 30.09 in 6.2 mi Variable 3.5 mph - N/A   Partly Cloudy
1:00 AM 83 °F 31 °F 7%  in 12 mi SW 4.6 mph - -   Scattered Clouds
1:00 AM 82.4 °F 30.2 °F 15% 30.09 in 6.2 mi SW 4.6 mph - N/A   Scattered Clouds
2:00 AM 82.4 °F 32.0 °F 16% 30.09 in 6.2 mi Variable 3.5 mph - N/A   Partly Cloudy
3:00 AM 77.0 °F 28.4 °F 17% 30.06 in 6.2 mi West 4.6 mph - N/A   Partly Cloudy
4:00 AM 74 °F 31 °F 11%  in 12 mi West 1.2 mph - -  
4:00 AM 75.2 °F 30.2 °F 19% 30.06 in - Variable 1.2 mph - N/A   Clear
6:00 AM 71.6 °F 28.4 °F 20% 30.06 in - Variable 2.3 mph - N/A   Clear
7:00 AM 70 °F 27 °F 11%  in 12 mi WNW 1.2 mph - -  
7:00 AM 69.8 °F 26.6 °F 20% 30.06 in - Variable 2.3 mph - N/A   Clear
8:00 AM 69.8 °F 28.4 °F 21% 30.09 in - Variable 1.2 mph - N/A   Clear
9:00 AM 77.0 °F 32.0 °F 19% 30.12 in - Calm Calm - N/A   Clear
10:00 AM 80 °F 35 °F 11%  in 12 mi ENE 1.2 mph - -  
10:00 AM 80.6 °F 35.6 °F 20% 30.12 in - Variable 1.2 mph - N/A   Clear
11:00 AM 86.0 °F 30.2 °F 13% 30.09 in - Variable 1.2 mph - N/A   Clear
12:00 PM 89.6 °F 28.4 °F 11% 30.09 in - Variable 2.3 mph - N/A   Clear
1:00 PM 94 °F 24 °F 4%  in 12 mi ENE 2.3 mph - -  
1:00 PM 93.2 °F 23.0 °F 8% 30.06 in - Variable 2.3 mph - N/A   Clear
2:00 PM 95.0 °F 21.2 °F 7% 30.04 in - Variable 2.3 mph - N/A   Clear
3:00 PM 98.6 °F 24.8 °F 7% 30.01 in 6.2 mi Variable 2.3 mph - N/A   Partly Cloudy
4:00 PM 97 °F 23 °F 4%  in 12 mi ESE 2.3 mph - -   Partly Cloudy
4:00 PM 96.8 °F 23.0 °F 7% 29.98 in 6.2 mi Variable 2.3 mph - N/A   Scattered Clouds
5:00 PM 100.4 °F 24.8 °F 7% 29.95 in 6.2 mi SW 16.1 mph 28.8 mph N/A   Scattered Clouds
6:00 PM 98.6 °F 24.8 °F 7% 29.98 in 6.2 mi West 15.0 mph - N/A   Scattered Clouds
7:00 PM 95 °F 28 °F 4%  in 12 mi WNW 17.3 mph - -   Partly Cloudy
7:00 PM 95.0 °F 26.6 °F 9% 29.98 in 6.2 mi WNW 17.3 mph - N/A   Scattered Clouds
8:00 PM 91.4 °F 24.8 °F 9% 30.01 in 6.2 mi WNW 17.3 mph - N/A   Scattered Clouds
9:00 PM 87.8 °F 24.8 °F 10% 30.01 in 6.2 mi NW 10.4 mph - N/A   Scattered Clouds
10:00 PM 86 °F 26 °F 5%  in 12 mi WNW 6.9 mph - -   Partly Cloudy
10:00 PM 86.0 °F 26.6 °F 12% 30.04 in 6.2 mi WNW 6.9 mph - N/A   Scattered Clouds
11:00 PM 84.2 °F 26.6 °F 12% 30.04 in 6.2 mi Variable 2.3 mph - N/A   Partly Cloudy